Theta_e
325 318 316 311 300 294 289 293 294 296 296 297 301 300 298 300 298 294 316 320 321 325 341 344 347 350 353 354 354 352 353 351 351 351 351 350 350 349 348 348 348 346 345 344 344 344 346 351 354
315 319 313 305 294 288 288 291 294 296 299 299 300 299 299 296 303 309 309 316 322 323 339 344 345 350 352 353 353 352 352 351 351 350 349 350 350 351 349 347 348 346 345 344 343 344 346 349 353
318 317 304 299 290 287 289 292 294 297 300 299 297 301 298 298 304 304 309 314 320 325 341 344 345 348 349 351 352 352 352 352 350 350 350 349 349 349 348 349 349 347 346 345 344 343 346 348 352
309 308 303 293 290 292 293 293 296 297 299 302 299 296 301 304 305 308 311 312 315 323 335 342 344 343 343 345 349 349 348 349 349 349 348 348 349 349 349 348 348 348 347 347 347 346 345 347 350
307 301 294 291 289 293 294 297 297 297 297 298 298 295 298 303 305 306 307 309 309 311 313 322 337 341 341 342 344 345 347 348 348 348 347 347 347 347 348 348 348 348 347 346 347 348 347 347 348
300 298 291 288 290 294 294 297 296 295 297 297 296 296 295 302 304 304 305 306 308 309 311 313 318 324 334 339 340 340 341 344 345 346 345 346 345 346 347 345 346 347 346 345 345 348 347 347 348
300 294 291 290 291 294 296 297 296 295 294 296 297 294 295 299 302 303 302 302 304 306 307 309 311 315 319 324 333 337 339 340 342 343 343 342 342 343 343 343 344 345 345 345 346 347 347 347 348
299 296 292 293 291 292 295 297 298 297 296 300 299 292 290 296 300 300 300 300 301 302 302 302 304 308 313 313 322 325 332 335 336 338 337 335 335 337 337 335 338 343 344 344 344 345 345 346 346
302 295 292 290 292 293 297 295 298 298 296 295 297 294 295 297 298 296 296 297 299 300 299 300 300 302 307 308 315 319 324 329 330 332 332 331 334 335 333 332 334 340 339 340 342 343 343 341 339
298 293 293 295 294 293 296 295 295 295 293 292 293 295 296 296 294 293 293 293 295 296 297 298 298 300 302 305 307 311 314 320 324 328 330 332 331 333 333 328 329 333 334 337 340 339 338 332 333
296 293 296 297 298 298 296 295 296 294 290 290 290 291 293 293 292 291 292 292 292 293 295 296 297 298 299 302 303 305 307 312 319 323 325 329 330 330 330 331 328 327 324 328 330 331 330 330 333
292 298 298 300 299 298 295 296 293 293 291 294 293 292 291 290 290 290 291 292 292 292 294 295 295 296 297 300 301 302 303 307 314 317 323 325 326 327 328 327 326 325 326 324 325 324 328 330 331
295 297 298 299 298 296 298 295 292 289 292 293 293 292 290 290 290 290 291 291 290 290 292 294 294 294 297 296 297 298 300 305 309 313 317 321 323 325 327 327 326 325 325 323 324 324 325 327 327
297 297 297 298 298 297 295 294 293 291 291 291 291 290 290 290 290 288 289 289 289 290 290 293 294 294 295 295 294 295 296 301 307 308 310 317 316 318 322 325 326 326 326 324 324 323 323 324 326
296 292 294 295 296 295 296 291 290 292 291 290 289 288 289 290 289 287 287 288 287 289 290 290 292 294 294 294 294 294 295 298 301 305 307 307 309 309 309 313 321 325 327 325 323 322 319 321 322
292 290 287 294 295 295 292 286 289 291 288 286 285 284 287 287 287 285 286 287 287 288 288 289 292 292 293 293 294 294 294 295 297 303 304 305 304 304 304 312 310 317 326 326 323 322 319 319 320
290 285 285 290 295 293 291 287 290 292 287 285 283 284 285 284 284 284 286 287 287 287 287 288 290 291 291 292 293 293 293 293 295 298 299 302 302 303 307 305 307 307 310 325 324 322 321 318 318
283 283 286 286 291 292 290 289 289 289 286 283 283 282 282 283 283 286 287 287 286 286 286 287 289 290 291 292 293 293 292 292 293 293 296 300 300 302 300 302 303 304 306 306 323 321 321 319 318
288 287 285 289 293 289 289 289 287 287 284 281 281 281 282 283 283 286 286 285 285 285 285 286 288 290 291 290 290 290 290 291 292 292 294 295 298 299 299 299 300 301 303 304 302 320 318 318 319
289 287 285 289 291 288 287 286 290 286 284 283 282 282 282 282 282 284 284 284 283 283 284 286 288 289 290 290 290 291 290 290 291 292 293 295 296 296 298 297 298 300 301 302 302 301 317 318 319
287 285 284 286 287 287 285 282 285 284 284 284 284 283 282 282 282 282 284 282 282 283 283 287 288 289 289 289 289 288 288 287 287 288 290 292 292 295 297 297 298 299 300 301 301 300 301 314 317
284 287 286 285 281 277 282 276 279 281 282 283 283 280 280 281 282 282 282 281 282 283 284 286 287 288 288 287 286 283 281 280 281 282 284 286 290 293 296 298 297 297 296 294 301 302 300 304 313
286 286 285 284 281 278 279 275 278 281 279 281 280 280 280 281 282 281 282 284 284 284 283 285 285 286 286 285 284 282 280 280 280 280 280 282 285 291 293 294 296 295 295 295 299 300 300 298 315
289 286 284 282 279 272 278 278 276 277 281 281 279 279 281 281 280 281 283 284 283 282 283 284 284 284 285 283 282 280 278 277 277 277 277 280 283 286 288 293 296 295 295 296 296 298 301 299 312
286 280 275 272 272 273 277 275 280 282 282 282 278 279 280 280 279 280 281 281 282 282 283 283 283 282 282 281 280 279 277 277 276 276 276 278 280 282 283 287 291 295 296 296 295 296 298 299 296
284 280 275 270 269 276 277 274 279 280 281 280 280 280 280 279 280 280 281 281 281 282 282 282 281 281 280 279 278 278 277 276 275 276 276 275 276 278 282 284 287 295 295 294 294 295 298 298 297
281 278 282 276 263 266 273 276 279 279 279 278 278 279 278 279 279 280 281 281 280 280 281 280 280 279 279 278 277 276 276 274 273 274 273 274 277 278 279 283 287 288 294 294 293 293 295 298 298
281 283 277 277 270 264 271 274 277 276 277 277 277 277 278 278 279 280 280 280 280 280 280 280 279 278 277 277 276 276 274 274 273 272 273 274 274 276 278 280 282 286 293 293 292 292 293 296 298
276 276 278 278 277 271 267 273 278 279 279 276 276 278 278 278 279 279 279 279 279 279 278 278 277 276 275 275 275 274 274 273 272 272 272 272 275 275 275 276 281 283 284 292 291 291 291 293 296
279 279 279 276 274 274 275 275 281 280 278 277 277 278 279 280 279 278 278 278 278 277 277 277 276 274 274 274 273 273 273 272 271 270 270 271 271 272 274 275 277 279 283 290 290 289 290 290 294
Wind_Speed
6 6 1 4 6 6 2 0 3 5 4 0 1 5 1 1 1 4 5 6 8 7 5 4 5 4 4 7 7 9 9 9 10 11 11 11 10 9 8 10 8 10 12 12 13 12 12 11 9
3 3 4 1 6 4 4 3 5 4 4 2 4 3 5 5 7 10 6 11 10 8 7 6 7 5 4 6 6 7 8 8 11 12 11 11 10 11 10 9 9 10 12 13 14 14 13 12 10
3 1 4 4 3 4 4 2 4 3 6 2 2 7 8 10 8 3 7 7 10 11 8 8 10 9 11 11 7 7 7 8 10 12 12 12 11 11 10 9 9 11 13 13 14 14 13 12 12
3 5 4 5 5 4 7 2 3 4 4 4 2 10 7 9 7 10 10 17 16 14 8 7 9 8 6 12 13 10 8 9 9 10 12 13 12 10 10 10 10 11 14 15 16 14 13 12 12
4 3 4 2 2 5 4 4 3 4 4 4 3 3 7 8 7 10 15 16 16 16 16 16 15 7 5 8 13 16 16 11 12 11 13 13 12 12 11 11 11 13 14 15 15 16 15 11 12
5 4 4 1 3 5 4 5 3 4 4 4 7 8 5 7 11 11 12 13 14 14 14 13 18 18 14 12 9 11 16 19 16 15 14 14 14 14 13 13 13 14 14 13 14 12 12 13 12
3 4 3 1 4 4 2 3 4 4 3 6 2 7 5 9 9 9 10 9 11 10 15 12 12 13 16 14 14 12 14 15 17 17 17 16 14 14 13 13 13 14 15 13 13 11 11 12 14
4 4 4 2 1 2 0 3 4 8 7 1 6 5 4 4 7 9 9 9 9 12 11 13 13 13 12 9 14 16 16 14 17 17 15 13 13 13 11 11 11 16 17 15 14 13 13 14 15
3 5 2 3 4 3 4 3 6 3 12 9 6 6 4 5 9 10 8 11 10 11 10 12 11 14 13 13 13 14 16 13 13 13 14 12 6 9 9 10 12 16 18 16 14 15 15 15 12
5 3 1 1 2 2 1 4 4 6 5 5 7 7 9 10 9 9 9 10 13 12 9 12 10 10 11 12 14 12 12 11 10 8 11 9 9 9 10 11 14 18 15 13 13 16 15 9 5
3 3 2 3 4 3 2 5 4 11 5 2 8 6 7 10 10 10 8 7 6 6 6 9 11 10 9 9 8 7 8 7 8 10 10 10 9 7 6 6 7 7 10 5 6 6 4 7 7
2 6 2 3 4 3 1 4 5 5 5 8 9 8 9 10 8 8 7 7 7 7 7 8 8 7 8 6 7 8 8 10 8 11 14 10 8 8 8 6 8 8 7 8 6 4 6 7 10
3 3 2 3 2 0 3 6 8 6 7 8 10 11 10 9 8 7 6 6 7 8 8 8 7 6 8 10 9 9 9 8 9 11 13 12 12 11 10 8 7 7 6 7 8 7 7 8 9
3 4 7 2 3 3 4 7 9 5 5 9 9 9 8 9 6 5 6 7 6 6 6 7 7 7 8 10 12 11 9 9 8 7 11 13 13 13 14 12 9 9 8 8 9 10 9 8 10
0 3 3 4 4 4 5 2 5 11 7 9 8 7 7 7 6 5 3 4 4 4 6 9 14 12 12 12 9 11 10 11 12 10 7 13 11 13 16 13 15 10 9 11 9 8 7 8 8
1 2 1 4 6 4 4 5 6 10 12 9 8 6 6 4 4 3 4 4 6 7 8 9 13 13 12 12 12 11 10 9 11 11 9 8 13 13 14 10 11 16 11 11 11 11 10 10 10
4 3 3 4 6 2 3 5 10 9 11 9 8 7 6 4 4 4 5 7 8 9 8 9 12 13 13 13 11 11 12 7 10 11 13 10 10 12 8 9 10 14 15 12 13 13 15 12 11
4 4 4 5 3 6 6 6 8 11 10 10 8 7 6 5 3 4 7 7 8 9 9 8 9 11 13 12 12 12 10 8 9 12 12 13 12 12 8 9 10 12 12 14 13 18 17 16 14
3 5 7 8 4 5 7 6 13 12 7 10 9 8 7 5 2 5 5 7 8 8 8 7 8 12 11 11 13 13 13 12 13 14 18 17 14 12 10 6 8 8 12 16 18 14 23 15 14
5 7 8 8 4 0 5 11 8 19 14 11 10 8 7 4 3 3 4 6 6 6 7 7 10 13 13 13 12 10 15 15 16 16 16 15 16 17 11 7 7 8 11 14 15 17 16 17 17
5 6 5 7 6 7 7 8 7 5 6 8 7 7 6 7 4 2 4 5 6 8 6 11 11 13 14 15 14 13 13 14 14 14 15 11 18 17 14 10 6 3 6 11 12 13 24 8 15
6 2 2 5 4 4 2 12 4 10 12 12 10 8 7 6 4 1 1 4 5 6 5 9 10 10 13 16 16 19 16 18 16 16 16 18 21 20 16 13 6 4 3 14 12 8 15 23 16
6 2 5 5 9 3 6 6 6 12 13 13 9 8 6 6 5 1 3 4 6 5 7 8 6 11 13 13 15 14 17 15 15 15 21 21 18 19 19 17 9 6 4 6 15 14 13 15 16
2 3 5 4 2 4 10 12 5 8 15 15 8 8 7 5 3 1 5 6 7 3 8 6 9 12 15 15 16 17 18 20 18 18 16 14 15 12 17 19 13 7 6 4 12 15 13 17 18
2 4 6 7 3 9 2 1 14 7 7 19 14 10 7 5 2 5 7 7 5 9 7 8 11 16 16 15 16 17 17 20 20 20 14 17 13 14 16 18 18 8 6 5 8 14 11 11 16
6 8 6 8 5 10 6 10 6 1 11 13 10 9 7 5 5 7 6 7 8 6 10 9 12 17 16 16 17 16 17 11 14 16 14 14 14 15 20 18 18 21 7 4 6 11 11 9 15
3 5 2 1 2 3 6 5 3 2 7 7 9 8 7 6 4 5 8 6 6 6 11 8 14 16 16 16 16 17 16 17 17 17 19 14 16 15 20 19 16 22 9 6 5 8 13 10 11
2 3 3 1 4 8 7 9 10 12 14 8 8 8 5 0 4 4 5 6 3 6 7 10 12 16 16 17 15 15 18 18 16 17 20 17 18 20 19 18 18 17 19 6 5 6 10 12 10
1 4 4 3 6 6 3 8 5 18 15 12 8 7 6 5 5 6 5 3 4 6 7 11 13 16 16 16 17 17 19 18 17 16 17 18 17 18 20 18 19 17 16 11 6 6 9 12 14
4 10 11 7 8 5 12 21 7 12 11 10 9 8 6 6 2 3 6 4 5 7 10 12 14 15 16 16 18 18 19 19 19 17 18 19 19 17 19 18 19 18 16 18 7 6 9 11 13
Wind_Direction
313 293 105 39 61 61 46 19 79 43 49 357 98 88 115 70 77 91 226 7 8 11 121 100 144 177 245 221 215 204 200 211 222 221 220 214 222 229 234 240 243 264 275 272 269 266 263 262 245
325 317 39 70 83 83 297 61 71 127 149 25 62 60 72 64 27 101 4 331 18 16 49 73 56 23 294 245 236 221 233 230 236 240 240 239 233 231 224 248 232 239 260 269 268 265 263 256 239
290 212 79 101 127 130 135 325 59 133 113 96 67 57 29 310 19 63 295 2 24 19 53 54 57 32 355 332 291 245 226 229 237 246 250 248 247 253 249 243 236 238 244 257 263 263 263 259 253
21 12 16 82 125 29 129 140 65 122 45 42 163 71 107 337 33 344 17 35 34 16 26 60 55 33 4 323 320 302 261 256 254 250 246 252 256 254 254 248 238 244 250 248 255 252 257 262 262
39 66 34 10 68 111 96 91 57 358 132 174 101 82 88 0 17 29 35 36 39 36 31 23 7 356 356 341 333 330 318 284 260 257 259 255 251 256 245 238 240 244 254 254 256 251 260 251 263
16 91 46 42 111 132 63 69 88 59 40 14 54 101 54 306 31 20 36 41 37 37 27 23 20 21 349 331 322 320 308 307 299 275 261 257 254 252 251 251 242 242 250 249 248 249 246 254 251
97 73 227 263 167 68 143 99 86 80 35 7 319 90 154 16 11 29 27 29 34 32 32 22 14 10 11 357 318 304 298 292 289 292 283 268 256 254 250 247 249 245 241 243 248 247 245 238 240
96 95 306 16 106 106 206 67 123 93 23 156 26 61 37 317 23 31 28 25 26 27 25 19 12 8 2 357 354 342 320 307 305 283 274 265 259 251 249 253 253 250 241 236 239 246 245 237 225
72 65 317 358 61 119 352 104 19 52 82 42 59 85 120 36 32 34 21 20 23 24 24 13 10 9 1 3 355 344 339 317 311 304 289 267 250 247 246 246 241 245 249 239 236 242 245 232 206
74 88 261 12 71 107 68 112 119 74 85 66 82 52 58 43 35 38 30 27 17 14 11 15 4 7 1 3 355 349 343 333 325 312 306 293 271 244 239 240 237 237 234 231 234 245 239 209 189
345 206 333 56 110 60 8 51 7 131 55 51 132 102 65 54 37 31 23 30 20 337 0 9 4 355 357 1 350 348 338 330 326 321 316 309 303 279 254 238 239 233 218 205 223 238 200 186 181
13 269 53 356 57 57 1 84 67 39 120 148 119 111 84 66 53 35 25 19 9 1 344 350 1 359 349 353 348 339 338 328 330 328 319 320 308 295 275 253 243 225 204 199 195 200 191 181 184
178 271 318 311 43 110 351 124 126 110 142 112 91 82 80 67 54 30 20 12 8 0 343 337 348 359 352 354 343 338 333 324 327 330 329 325 314 304 290 269 243 228 212 187 191 188 183 187 190
316 314 288 294 178 144 132 140 90 241 137 100 96 97 95 91 74 31 14 4 3 344 342 342 340 344 351 354 342 335 328 317 316 323 321 326 333 325 315 294 263 235 217 200 190 188 183 183 190
32 319 6 213 201 221 143 216 154 146 146 123 116 112 109 105 76 50 1 354 341 342 349 3 1 358 345 340 332 327 322 326 322 310 314 317 318 319 317 314 301 259 220 214 204 186 179 172 175
318 147 122 256 164 253 103 262 167 169 139 144 132 121 112 104 94 50 32 19 3 1 357 4 354 347 336 334 323 317 313 318 315 307 310 302 310 316 308 314 318 318 241 215 204 190 191 184 181
360 282 293 327 214 152 160 242 174 179 154 153 154 144 133 97 58 37 54 41 16 359 357 4 352 335 328 329 321 312 296 300 308 305 304 286 298 303 303 316 316 316 317 232 216 199 195 185 184
277 304 301 268 239 202 200 243 170 180 159 165 160 152 144 112 66 51 59 38 23 356 349 351 344 335 335 335 324 317 301 292 300 304 293 284 296 286 302 302 309 317 299 307 226 220 196 186 180
254 257 253 266 247 186 231 249 190 184 170 171 172 167 156 112 79 73 70 32 16 355 330 333 347 347 333 338 327 320 312 314 307 305 291 282 281 282 276 278 294 311 300 291 307 260 204 187 178
234 262 273 281 167 340 257 252 243 185 186 173 167 173 157 130 84 77 63 30 3 335 319 341 349 347 340 328 318 321 313 309 308 310 305 296 281 280 255 254 275 304 301 298 280 308 252 183 176
252 230 252 254 328 301 284 272 206 193 158 172 173 163 149 144 125 60 41 10 350 332 320 356 347 339 333 329 324 318 315 309 310 308 310 311 307 295 273 241 235 264 314 275 265 279 314 253 175
264 177 228 280 353 247 125 289 199 176 183 184 185 165 154 133 113 72 1 331 329 303 349 351 331 332 329 330 325 325 318 311 312 307 305 307 314 301 285 261 209 241 275 302 273 281 269 299 194
240 44 247 252 248 358 236 258 257 161 205 196 178 172 153 147 126 50 307 285 286 309 351 341 319 320 324 329 330 323 313 305 307 302 306 305 294 302 290 273 235 210 241 287 286 260 275 308 221
18 306 265 221 157 261 239 205 239 181 217 174 169 165 151 134 122 311 275 271 276 300 5 329 316 322 323 327 327 315 310 308 305 305 303 303 301 299 299 308 248 215 221 251 300 305 269 261 262
73 50 321 341 342 236 210 278 243 221 196 171 159 161 150 134 174 250 263 264 346 3 337 317 322 320 320 320 319 312 309 303 303 303 301 301 307 301 300 304 302 235 218 253 269 279 287 291 303
190 164 168 258 240 280 336 256 247 124 115 126 140 146 145 158 213 239 267 5 345 336 328 314 321 314 313 313 312 311 307 299 304 294 303 298 295 291 298 298 297 288 218 244 340 282 284 258 280
193 187 168 281 136 7 240 277 342 159 133 137 144 147 168 187 230 352 352 324 317 324 322 313 312 310 310 310 309 309 307 306 298 300 299 290 290 294 298 290 294 314 226 212 233 288 288 283 283
209 183 70 74 286 275 269 264 236 194 198 179 167 164 172 181 359 296 267 286 311 319 296 301 304 310 311 308 309 307 309 304 298 304 293 302 299 291 290 295 298 295 290 209 217 264 287 281 273
139 235 231 187 172 232 295 246 231 194 183 183 175 167 187 213 227 248 293 296 317 298 298 306 310 313 310 309 309 307 308 304 300 298 299 297 298 309 308 304 298 304 303 250 212 243 279 281 270
175 201 189 206 228 239 253 272 181 184 161 162 171 182 197 200 257 310 297 298 311 310 312 309 312 312 311 307 307 304 307 307 301 297 298 297 292 293 292 296 296 293 289 281 223 230 270 277 296